Flag for Germany Weather past 2 weeks in Esslingen, Baden-Württemberg, Germany

54 °F

Drizzle. Broken clouds.

Feels Like: 53 °F
Forecast: 47 / 69 °F
Wind: 3 mph from North

Location: Stuttgart-Echterdingen

Current Time: Oct 4, 2015 at 10:17:01 AM

Latest Report: Oct 4, 2015 at 9:20 AM

Visibility: 4 mi

Pressure: 30.09 "Hg

Humidity: 94%

Dew point: 52 °F

Location of EsslingenLocation

Historic Weather in Esslingen — Graph


Esslingen temperature yesterday

Maximum temperature yesterday: 72 °F (at 3:50 PM)
Minimum temperature yesterday: 45 °F (at 4:20 AM)
Average temperature yesterday: 57 °F

Past Weeks' High & Low Weather Summary

High72 °F (Oct 3, 3:50 PM)100% (Sep 21, 2:20 AM)30.51 "Hg (Sep 21, 2:20 AM)
Low39 °F (Sep 21, 5:50 AM)32% (Sep 30, 3:50 PM)29.65 "Hg (Sep 22, 7:20 PM)
Average54 °F70%30.18 "Hg
* Reported Sep 19 9:20 AM — Oct 4 9:20 AM, Esslingen, Weather by CustomWeather, © 2015

Note: Actual official high and low records may vary slightly from our data, if they occured in-between our weather recording intervals... More about our weather records


Esslingen weather history for previous 24 hours

Time TempWeatherWind HumidityBarometerVisibility
9:20 AM
Sun, Oct 4
54 °FDrizzle. Broken clouds.3 mph94%30.09 "Hg4 mi
8:50 AM54 °FLight rain. Broken clouds.5 mph94%30.07 "Hg6 mi
8:20 AM54 °FLight rain. Partly cloudy.1 mph94%30.07 "Hg5 mi
7:50 AM54 °FRain. Passing clouds.3 mph94%30.07 "Hg5 mi
7:20 AM54 °FLight rain. Mostly cloudy.5 mph94%30.04 "HgN/A
6:20 AM52 °FPassing clouds.2 mph94%30.04 "HgN/A
5:50 AM52 °FClear.2 mph88%30.01 "Hg10 mi
5:20 AM52 °FLight rain. Clear.3 mph88%30.01 "HgN/A
4:50 AM52 °FCool.2 mph88%30.01 "HgN/A
4:20 AM52 °FLight rain. Clear.1 mph88%30.01 "HgN/A
3:50 AM52 °FClear.1 mph88%29.98 "Hg10 mi
3:20 AM52 °FClear.2 mph88%29.98 "Hg10 mi
2:50 AM52 °FClear.1 mph88%29.98 "Hg10 mi
2:20 AM52 °FClear.1 mph88%29.98 "Hg10 mi
1:50 AM52 °FClear.1 mph82%29.98 "Hg10 mi
1:20 AM52 °FClear.3 mph82%29.98 "Hg10 mi
12:50 AM54 °FClear.1 mph77%30.01 "Hg10 mi
11:20 PM
Sat, Oct 3
55 °FClear.1 mph77%29.98 "Hg10 mi
10:50 PM57 °FClear.5 mph72%29.98 "Hg10 mi
10:20 PM57 °FClear.2 mph72%29.98 "Hg10 mi
9:50 PM55 °FClear.3 mph72%29.98 "Hg10 mi
9:20 PM57 °FClear.2 mph72%29.98 "Hg10 mi
8:50 PM59 °FClear.1 mph68%29.98 "Hg10 mi
8:20 PM59 °FClear.6 mph68%29.98 "Hg10 mi
7:50 PM59 °FPassing clouds.3 mph68%29.98 "HgN/A
7:20 PM61 °FSunny.1 mph63%29.98 "Hg10 mi
6:50 PM64 °FPassing clouds.5 mph56%29.98 "HgN/A
6:20 PM66 °FPassing clouds.7 mph52%29.98 "HgN/A
5:50 PM68 °FPassing clouds.6 mph49%29.98 "HgN/A
5:20 PM70 °FPassing clouds.3 mph40%29.98 "HgN/A
4:50 PM70 °FSunny.2 mph40%29.98 "Hg10 mi
4:20 PM70 °FPassing clouds.6 mph40%30.01 "HgN/A
3:50 PM72 °FPassing clouds.3 mph38%29.98 "HgN/A
3:20 PM70 °FSunny.3 mph40%30.01 "Hg10 mi
2:50 PM70 °FPassing clouds.6 mph40%30.01 "HgN/A
2:20 PM70 °FSunny.2 mph38%30.01 "Hg10 mi
1:50 PM70 °FSunny.5 mph40%30.01 "Hg10 mi
1:20 PM68 °FPassing clouds.7 mph46%30.01 "HgN/A
12:50 PM66 °FSunny.6 mph49%30.04 "Hg10 mi
12:20 PM66 °FPassing clouds.6 mph49%30.04 "HgN/A
11:50 AM64 °FPassing clouds.6 mph52%30.07 "HgN/A
11:20 AM61 °FSunny.5 mph63%30.07 "Hg10 mi
10:50 AM57 °FSunny.2 mph67%30.07 "Hg10 mi
10:20 AM54 °FSunny.1 mph72%30.07 "Hg10 mi
Weather by CustomWeather, © 2015

See weather overviewHow to use our weather pages